When you browse on this site, cookies collect data to enhance your experience and personalize the content and advertising you see.
Visit our Privacy Policy to learn more. By continuing to use the site, you agree to this use of cookies and data.
  • In United Kingdom
  • List of Countries
  • For 7 days
  • Water Temperature
  • Weather Map
  • Weather Widgets
  • user-avatar
    Login

    Hourly Weather Adelaide

    Today, 16 September, Monday

    Time Temperature Precipitation Wind Pressure Humidity
    00:00 +14°C° 0 mm 4 mps 760 mmHg 92%
    01:00 +13°C° 0.1 mm 4 mps 760 mmHg 88%
    02:00 +12°C° 0.1 mm 5 mps 760 mmHg 84%
    03:00 +10°C° 0 mm 6 mps 760 mmHg 81%
    04:00 +10°C° 0.1 mm 5 mps 761 mmHg 82%
    05:00 +11°C° 0.1 mm 4 mps 761 mmHg 83%
    06:00 +10°C° 0.1 mm 4 mps 761 mmHg 83%
    07:00 +11°C° 0.1 mm 4 mps 762 mmHg 81%
    08:00 +12°C° 0.1 mm 4 mps 763 mmHg 78%
    09:00 +12°C° 0 mm 3 mps 764 mmHg 75%
    10:00 +13°C° 0 mm 4 mps 763 mmHg 70%
    11:00 +13°C° 0 mm 5 mps 763 mmHg 64%
    12:00 +14°C° 0 mm 6 mps 763 mmHg 59%
    13:00 +14°C° 0 mm 6 mps 763 mmHg 58%
    14:00 +13°C° 0 mm 6 mps 764 mmHg 56%
    15:00 +13°C° 0 mm 5 mps 764 mmHg 54%
    16:00 +12°C° 0 mm 5 mps 764 mmHg 57%
    17:00 +10°C° 0 mm 5 mps 765 mmHg 61%
    18:00 +8°C° 0 mm 5 mps 765 mmHg 64%
    19:00 +8°C° 0 mm 4 mps 766 mmHg 66%
    20:00 +7°C° 0 mm 4 mps 766 mmHg 67%
    21:00 +7°C° 0 mm 4 mps 767 mmHg 69%
    22:00 +6°C° 0 mm 4 mps 767 mmHg 69%
    23:00 +6°C° 0 mm 4 mps 767 mmHg 70%

    Tomorrow, 17 September, Tuesday

    Time Temperature Precipitation Wind Pressure Humidity
    00:00 +6°C° 0 mm 4 mps 767 mmHg 71%
    01:00 +5°C° 0 mm 4 mps 767 mmHg 72%
    02:00 +5°C° 0 mm 4 mps 767 mmHg 72%
    03:00 +5°C° 0 mm 4 mps 766 mmHg 73%
    04:00 +4°C° 0 mm 3 mps 767 mmHg 74%
    05:00 +4°C° 0 mm 3 mps 767 mmHg 76%
    06:00 +3°C° 0 mm 3 mps 767 mmHg 77%
    07:00 +5°C° 0 mm 3 mps 767 mmHg 65%
    08:00 +8°C° 0 mm 3 mps 767 mmHg 53%
    09:00 +10°C° 0 mm 3 mps 767 mmHg 41%
    10:00 +11°C° 0 mm 3 mps 767 mmHg 39%
    11:00 +13°C° 0 mm 2 mps 767 mmHg 37%
    12:00 +15°C° 0 mm 2 mps 767 mmHg 36%
    13:00 +15°C° 0 mm 2 mps 766 mmHg 38%
    14:00 +14°C° 0 mm 3 mps 766 mmHg 40%
    15:00 +14°C° 0 mm 3 mps 765 mmHg 42%
    16:00 +12°C° 0 mm 3 mps 766 mmHg 49%
    17:00 +11°C° 0 mm 3 mps 766 mmHg 56%
    18:00 +9°C° 0 mm 3 mps 766 mmHg 64%
    19:00 +9°C° 0 mm 3 mps 766 mmHg 64%
    20:00 +8°C° 0 mm 3 mps 767 mmHg 64%
    21:00 +8°C° 0 mm 3 mps 767 mmHg 64%
    22:00 +8°C° 0 mm 3 mps 767 mmHg 63%
    23:00 +8°C° 0 mm 3 mps 766 mmHg 61%

    Day after tomorrow, 18 September, Wednesday

    Time Temperature Precipitation Wind Pressure Humidity
    00:00 +8°C° 0 mm 3 mps 766 mmHg 60%
    01:00 +8°C° 0 mm 3 mps 766 mmHg 60%
    02:00 +8°C° 0 mm 3 mps 765 mmHg 59%
    03:00 +7°C° 0 mm 3 mps 765 mmHg 58%
    04:00 +8°C° 0 mm 3 mps 765 mmHg 55%
    05:00 +8°C° 0 mm 3 mps 765 mmHg 51%
    06:00 +7°C° 0 mm 4 mps 765 mmHg 48%
    07:00 +10°C° 0 mm 4 mps 765 mmHg 45%
    08:00 +12°C° 0 mm 4 mps 765 mmHg 43%
    09:00 +15°C° 0 mm 5 mps 765 mmHg 41%
    10:00 +17°C° 0 mm 4 mps 765 mmHg 40%
    11:00 +18°C° 0 mm 4 mps 764 mmHg 39%
    12:00 +19°C° 0 mm 3 mps 764 mmHg 38%
    13:00 +19°C° 0 mm 3 mps 763 mmHg 40%
    14:00 +19°C° 0 mm 3 mps 762 mmHg 41%
    15:00 +19°C° 0 mm 2 mps 761 mmHg 43%
    16:00 +18°C° 0 mm 3 mps 761 mmHg 44%
    17:00 +17°C° 0 mm 3 mps 761 mmHg 45%
    18:00 +16°C° 0 mm 3 mps 761 mmHg 46%
    19:00 +15°C° 0 mm 4 mps 761 mmHg 42%
    20:00 +15°C° 0 mm 5 mps 761 mmHg 38%
    21:00 +15°C° 0 mm 5 mps 760 mmHg 35%
    22:00 +15°C° 0 mm 6 mps 760 mmHg 35%
    23:00 +15°C° 0 mm 6 mps 759 mmHg 35%

    19 September, Thursday

    Time Temperature Precipitation Wind Pressure Humidity
    00:00 +15°C° 0 mm 7 mps 758 mmHg 35%
    01:00 +16°C° 0 mm 7 mps 758 mmHg 34%
    02:00 +16°C° 0 mm 7 mps 757 mmHg 34%
    03:00 +16°C° 0 mm 7 mps 756 mmHg 33%
    04:00 +16°C° 0 mm 7 mps 756 mmHg 33%
    05:00 +16°C° 0 mm 8 mps 756 mmHg 33%
    06:00 +16°C° 0 mm 8 mps 756 mmHg 34%
    07:00 +17°C° 0 mm 8 mps 755 mmHg 35%
    08:00 +18°C° 0 mm 8 mps 755 mmHg 37%
    09:00 +20°C° 0 mm 8 mps 755 mmHg 38%
    10:00 +21°C° 0 mm 8 mps 754 mmHg 37%
    11:00 +23°C° 0 mm 7 mps 754 mmHg 36%
    12:00 +24°C° 0 mm 7 mps 753 mmHg 35%
    13:00 +24°C° 0 mm 7 mps 752 mmHg 37%
    14:00 +24°C° 0 mm 6 mps 751 mmHg 38%
    15:00 +24°C° 0 mm 6 mps 750 mmHg 40%
    16:00 +24°C° 0 mm 6 mps 751 mmHg 39%
    17:00 +23°C° 0 mm 5 mps 751 mmHg 38%
    18:00 +22°C° 0 mm 5 mps 751 mmHg 37%
    19:00 +21°C° 0 mm 4 mps 751 mmHg 42%
    20:00 +20°C° 0 mm 4 mps 752 mmHg 47%
    21:00 +19°C° 0 mm 3 mps 752 mmHg 52%
    22:00 +18°C° 0 mm 3 mps 752 mmHg 57%
    23:00 +17°C° 0 mm 3 mps 753 mmHg 62%

    20 September, Friday

    Time Temperature Precipitation Wind Pressure Humidity
    00:00 +17°C° 0 mm 4 mps 753 mmHg 68%
    01:00 +16°C° 1.4 mm 3 mps 753 mmHg 77%
    02:00 +15°C° 1.4 mm 2 mps 754 mmHg 86%
    03:00 +14°C° 1.4 mm 1 mps 754 mmHg 95%
    04:00 +14°C° 2.9 mm 2 mps 754 mmHg 95%
    05:00 +13°C° 2.9 mm 3 mps 755 mmHg 95%
    06:00 +12°C° 2.9 mm 3 mps 755 mmHg 94%
    07:00 +12°C° 1.1 mm 3 mps 755 mmHg 93%
    08:00 +12°C° 1.1 mm 3 mps 756 mmHg 92%
    09:00 +11°C° 1.1 mm 3 mps 756 mmHg 91%
    10:00 +11°C° 0.5 mm 3 mps 756 mmHg 90%
    11:00 +11°C° 0.5 mm 3 mps 756 mmHg 89%
    12:00 +12°C° 0.5 mm 4 mps 757 mmHg 88%
    13:00 +11°C° 0.4 mm 4 mps 757 mmHg 86%
    14:00 +11°C° 0.4 mm 4 mps 756 mmHg 83%
    15:00 +10°C° 0.4 mm 5 mps 756 mmHg 81%
    16:00 +10°C° 0.1 mm 5 mps 757 mmHg 81%
    17:00 +9°C° 0.1 mm 5 mps 757 mmHg 81%
    18:00 +8°C° 0.1 mm 4 mps 758 mmHg 80%
    19:00 +8°C° 0.1 mm 4 mps 758 mmHg 80%
    20:00 +8°C° 0.1 mm 4 mps 759 mmHg 79%
    21:00 +8°C° 0.1 mm 4 mps 759 mmHg 78%
    22:00 +7°C° 0.1 mm 4 mps 759 mmHg 78%
    23:00 +7°C° 0.1 mm 5 mps 759 mmHg 78%

    21 September, Saturday

    Time Temperature Precipitation Wind Pressure Humidity
    00:00 +7°C° 0.1 mm 5 mps 759 mmHg 78%
    01:00 +7°C° 0.1 mm 5 mps 759 mmHg 78%
    02:00 +7°C° 0.1 mm 5 mps 759 mmHg 78%
    03:00 +7°C° 0.1 mm 6 mps 759 mmHg 78%
    04:00 +7°C° 0.1 mm 6 mps 760 mmHg 77%
    05:00 +6°C° 0.1 mm 5 mps 761 mmHg 75%
    06:00 +6°C° 0.1 mm 5 mps 761 mmHg 74%
    07:00 +7°C° 0 mm 5 mps 762 mmHg 67%
    08:00 +8°C° 0 mm 5 mps 763 mmHg 60%
    09:00 +9°C° 0 mm 5 mps 763 mmHg 53%
    10:00 +10°C° 0 mm 5 mps 763 mmHg 51%
    11:00 +11°C° 0 mm 4 mps 763 mmHg 49%
    12:00 +11°C° 0 mm 4 mps 763 mmHg 47%
    13:00 +11°C° 0 mm 4 mps 763 mmHg 49%
    14:00 +11°C° 0 mm 4 mps 763 mmHg 52%
    15:00 +11°C° 0 mm 4 mps 763 mmHg 54%
    16:00 +10°C° 0.1 mm 3 mps 763 mmHg 60%
    17:00 +9°C° 0.1 mm 3 mps 764 mmHg 66%
    18:00 +8°C° 0.1 mm 2 mps 764 mmHg 72%
    19:00 +8°C° 0.1 mm 2 mps 765 mmHg 74%
    20:00 +8°C° 0.1 mm 2 mps 765 mmHg 76%
    21:00 +8°C° 0.1 mm 2 mps 765 mmHg 79%
    22:00 +7°C° 0.2 mm 2 mps 765 mmHg 78%
    23:00 +8°C° 0.2 mm 1 mps 765 mmHg 78%
    Show more